Weather History for Nasa Shuttle, FL

Change the Weather History Date:

Saturday, September 29, 2012

  Actual Average Record
Temperature  
Mean Temperature 78 °F -  
Max Temperature 86 °F 82 °F 89 °F (1996)
Min Temperature 71 °F 70 °F 66 °F (2001)
Cooling Degree Days 14    
Growing Degree Days 28 (Base 50)    
Moisture  
Dew Point 74 °F    
Average Humidity 86    
Maximum Humidity 100    
Minimum Humidity 62    
Precipitation  
Precipitation 0.08 in - - ()
Sea Level Pressure  
Sea Level Pressure 29.97 in    
Wind  
Wind Speed 2 mph (West)    
Max Wind Speed 10 mph    
Max Gust Speed -    
Visibility 8 miles    
Events Rain    
Averages and records for this station are not official NWS values.
T = Trace of Precipitation, MM = Missing Value Source: NWS Daily Summary

Daily Weather History Graph

Daily Weather History Graph

Search for Another Location

Airport:

Trip Planner

Search our weather history database for the weather conditions in past years. The results will help you decide how hot, cold, wet, or windy it might be!

Date:

Astronomy

Sep. 29, 2012 Rise Set
Actual Time 7:15 AM EDT 7:10 PM EDT
Civil Twilight 6:51 AM EDT 7:33 PM EDT
Nautical Twilight 6:24 AM EDT 8:01 PM EDT
Astronomical Twilight 5:56 AM EDT 8:28 PM EDT
Moon 6:46 PM EDT (9/29) 6:43 AM EDT (9/29)
Length of Visible Light 12h 42m
Length of Day
11h 55m
Full, 100% of the Moon is Illuminated
Sep 29
Full
Sep 29
Full
Oct 8
Last Quarter
Oct 15
New
Oct 21
First Quarter

Hourly Weather History & Observations

Time (EDT) Temp. Heat Index Dew Point Humidity Pressure Visibility Wind Dir Wind Speed Gust Speed Precip Events Conditions
12:55 AM 72.7 °F - 72.1 °F 98% 30.00 in 9.0 mi Calm Calm - N/A   Clear
1:55 AM 72.3 °F - 71.8 °F 98% 29.99 in 10.0 mi Calm Calm - N/A   Clear
2:55 AM 72.3 °F - 72.0 °F 99% 29.98 in 10.0 mi Calm Calm - N/A   Clear
3:55 AM 71.6 °F - 71.2 °F 99% 29.96 in 10.0 mi Calm Calm - N/A   Clear
4:55 AM 71.2 °F - 70.9 °F 99% 29.95 in 10.0 mi Calm Calm - N/A   Clear
5:55 AM 71.2 °F - 70.9 °F 99% 29.96 in 10.0 mi Calm Calm - N/A   Clear
6:55 AM 72.3 °F - 72.0 °F 99% 29.97 in 10.0 mi Calm Calm - N/A   Clear
7:16 AM 71.6 °F - 71.6 °F 100% 29.98 in 10.0 mi Calm Calm - N/A   Mostly Cloudy
7:40 AM 71.6 °F - 71.6 °F 100% 29.99 in 10.0 mi Calm Calm - N/A   Light Drizzle
7:44 AM 73.4 °F - 73.4 °F 100% 29.98 in 10.0 mi Calm Calm - N/A   Light Drizzle
7:49 AM 73.4 °F - 73.4 °F 100% 29.98 in 10.0 mi Calm Calm - N/A   Scattered Clouds
7:55 AM 75.2 °F - 75.0 °F 99% 29.98 in 10.0 mi Calm Calm - 0.00 in   Partly Cloudy
8:32 AM 80.6 °F 88.1 °F 78.8 °F 94% 29.99 in 10.0 mi Calm Calm - N/A   Mostly Cloudy
8:36 AM 80.6 °F 88.1 °F 78.8 °F 94% 30.00 in 10.0 mi Calm Calm - N/A   Mostly Cloudy
8:55 AM 81.3 °F 89.2 °F 77.9 °F 89% 30.00 in 10.0 mi Calm Calm - N/A   Partly Cloudy
9:19 AM 82.4 °F 89.5 °F 75.2 °F 79% 30.00 in 10.0 mi ENE 4.6 mph - N/A   Mostly Cloudy
9:29 AM 84.2 °F 92.3 °F 75.2 °F 74% 30.01 in 10.0 mi ESE 5.8 mph - N/A   Scattered Clouds
9:55 AM 83.7 °F 90.7 °F 74.1 °F 73% 30.00 in 10.0 mi Calm Calm - N/A   Clear
10:21 AM 86.0 °F 91.8 °F 71.6 °F 62% 30.00 in 10.0 mi Calm Calm - N/A   Mostly Cloudy
10:44 AM 84.2 °F 90.9 °F 73.4 °F 70% 30.00 in 2.5 mi NW 9.2 mph - N/A   Haze
10:47 AM 84.2 °F 90.9 °F 73.4 °F 70% 30.00 in 1.8 mi NW 10.4 mph - N/A   Haze
10:55 AM 85.3 °F 94.6 °F 75.7 °F 73% 30.00 in 1.8 mi WNW 8.1 mph - N/A   Haze
10:56 AM 86.0 °F 95.1 °F 75.2 °F 70% 30.00 in 2.0 mi WNW 8.1 mph - N/A   Haze
10:59 AM 86.0 °F 95.1 °F 75.2 °F 70% 30.00 in 3.0 mi WNW 8.1 mph - N/A   Haze
11:01 AM 86.0 °F 95.1 °F 75.2 °F 70% 30.00 in 6.0 mi WNW 10.4 mph - N/A Rain Light Rain
11:27 AM 77.0 °F - 73.4 °F 89% 30.00 in 2.5 mi West 10.4 mph - N/A Rain Heavy Rain
11:28 AM 77.0 °F - 73.4 °F 89% 30.00 in 1.8 mi West 10.4 mph - N/A Rain Heavy Rain
11:41 AM 75.2 °F - 71.6 °F 89% 30.00 in 1.5 mi West 9.2 mph - N/A Rain Light Rain
11:45 AM 75.2 °F - 71.6 °F 89% 30.00 in 2.0 mi West 9.2 mph - N/A Rain Light Rain
11:49 AM 75.2 °F - 71.6 °F 89% 29.99 in 1.8 mi West 3.5 mph - N/A Rain Light Rain
11:50 AM 77.0 °F - 71.6 °F 83% 29.99 in 1.5 mi Calm Calm - N/A Rain Light Rain
11:52 AM 77.0 °F - 73.4 °F 89% 29.99 in 1.5 mi Calm Calm - N/A   Light Drizzle
11:55 AM 76.6 °F - 73.0 °F 89% 29.99 in 1.5 mi Calm Calm - 0.08 in   Light Drizzle
11:58 AM 77.0 °F - 73.4 °F 89% 29.99 in 2.0 mi Calm Calm - N/A   Light Drizzle
12:00 PM 77.0 °F - 73.4 °F 89% 29.99 in 3.0 mi Calm Calm - N/A   Light Drizzle
12:01 PM 77.0 °F - 73.4 °F 89% 29.99 in 4.0 mi Calm Calm - N/A   Overcast
12:10 PM 78.8 °F - 75.2 °F 89% 29.99 in 7.0 mi NNW 3.5 mph - N/A   Mostly Cloudy
12:19 PM 78.8 °F - 75.2 °F 89% 29.99 in 10.0 mi Calm Calm - N/A   Light Drizzle
12:25 PM 77.0 °F - 73.4 °F 89% 29.99 in 10.0 mi South 5.8 mph - N/A   Light Drizzle
12:41 PM 77.0 °F - 73.4 °F 89% 29.99 in 10.0 mi Calm Calm - N/A Rain Light Rain
12:43 PM 77.0 °F - 73.4 °F 89% 29.98 in 10.0 mi South 4.6 mph - N/A Rain Light Rain
12:48 PM 77.0 °F - 75.2 °F 94% 29.98 in 10.0 mi South 3.5 mph - N/A Rain Light Rain
12:55 PM 78.6 °F - 75.6 °F 90% 29.98 in 10.0 mi Calm Calm - 0.00 in Rain Light Rain
1:03 PM 78.8 °F - 75.2 °F 89% 29.98 in 10.0 mi Calm Calm - N/A   Mostly Cloudy
1:55 PM 84.4 °F 91.3 °F 73.6 °F 70% 29.95 in 10.0 mi Calm Calm - 0.00 in   Partly Cloudy
2:55 PM 82.6 °F 89.4 °F 74.7 °F 77% 29.93 in 10.0 mi East 8.1 mph - N/A   Scattered Clouds
3:44 PM 84.2 °F 92.3 °F 75.2 °F 74% 29.91 in 10.0 mi East 6.9 mph - N/A   Mostly Cloudy
3:47 PM 84.2 °F 92.3 °F 75.2 °F 74% 29.91 in 10.0 mi East 5.8 mph - N/A   Mostly Cloudy
3:55 PM 83.1 °F 89.8 °F 73.9 °F 74% 29.90 in 10.0 mi East 6.9 mph - N/A   Scattered Clouds
4:55 PM 84.7 °F 91.7 °F 73.8 °F 69% 29.88 in 10.0 mi ENE 5.8 mph - N/A   Clear
5:55 PM 83.8 °F 90.1 °F 73.2 °F 70% 29.88 in 10.0 mi ESE 4.6 mph - N/A   Clear
6:55 PM 80.1 °F 84.2 °F 73.0 °F 79% 29.88 in 10.0 mi ESE 4.6 mph - N/A   Clear
7:55 PM 76.8 °F - 72.5 °F 86% 29.89 in 10.0 mi ESE 3.5 mph - N/A   Clear
8:03 PM 77.0 °F - 71.6 °F 83% 29.89 in 10.0 mi ESE 3.5 mph - N/A Rain Light Rain
8:12 PM 75.2 °F - 71.6 °F 89% 29.89 in 10.0 mi Calm Calm - N/A   Clear
8:55 PM 76.5 °F - 72.9 °F 89% 29.90 in 10.0 mi Calm Calm - 0.00 in   Clear
9:55 PM 73.9 °F - 71.6 °F 92% 29.91 in 10.0 mi Calm Calm - N/A   Clear
10:55 PM 73.6 °F - 72.9 °F 98% 29.93 in 10.0 mi Calm Calm - N/A   Clear
11:55 PM 73.2 °F - 72.7 °F 98% 29.92 in 10.0 mi Calm Calm - N/A   Clear